TimeMST,TemperatureF,Dew PointF,Humidity,Sea Level PressureIn,VisibilityMPH,Wind Direction,Wind SpeedMPH,Gust SpeedMPH,PrecipitationIn,Events,Conditions,WindDirDegrees,DateUTC
12:53 AM,7.0,1.9,80,30.39,10.0,Calm,Calm,-,N/A,,Mostly Cloudy,0,2013-01-24 07:53:00
1:53 AM,10.0,5.0,80,30.37,10.0,North,5.8,-,N/A,,Overcast,350,2013-01-24 08:53:00
2:53 AM,10.0,3.9,76,30.35,10.0,ENE,6.9,-,N/A,,Overcast,60,2013-01-24 09:53:00
3:53 AM,12.9,7.0,77,30.33,10.0,Calm,Calm,-,N/A,,Overcast,0,2013-01-24 10:53:00
4:53 AM,14.0,7.0,74,30.31,10.0,ENE,6.9,-,N/A,,Overcast,60,2013-01-24 11:53:00
5:53 AM,15.1,8.1,74,30.32,10.0,NNE,5.8,-,N/A,,Overcast,30,2013-01-24 12:53:00
6:53 AM,15.1,8.1,74,30.33,10.0,East,4.6,-,N/A,,Overcast,90,2013-01-24 13:53:00
7:53 AM,16.0,10.0,77,30.32,10.0,SSW,3.5,-,N/A,,Overcast,200,2013-01-24 14:53:00
8:53 AM,19.9,12.9,74,30.31,10.0,North,6.9,-,N/A,,Overcast,350,2013-01-24 15:53:00
9:53 AM,21.0,12.9,71,30.32,10.0,Calm,Calm,-,N/A,,Overcast,0,2013-01-24 16:53:00
10:53 AM,-9999,-9999,N/A,30.20,-9999.0,North,-9999.0,-,N/A,,Unknown,0,2013-01-24 17:53:00
11:53 AM,27.0,19.9,75,30.32,10.0,ENE,5.8,-,N/A,,Partly Cloudy,60,2013-01-24 18:53:00
12:53 PM,30.0,21.9,72,30.29,10.0,ENE,8.1,-,N/A,,Scattered Clouds,70,2013-01-24 19:53:00
1:53 PM,30.9,24.1,76,30.25,10.0,ENE,6.9,-,N/A,,Overcast,60,2013-01-24 20:53:00
2:53 PM,32.0,25.0,75,30.27,10.0,NE,8.1,-,N/A,,Overcast,50,2013-01-24 21:53:00
3:53 PM,32.0,25.0,75,30.27,10.0,ESE,3.5,-,N/A,,Overcast,110,2013-01-24 22:53:00
4:53 PM,32.0,26.1,79,30.30,10.0,Calm,Calm,-,N/A,,Overcast,0,2013-01-24 23:53:00
5:53 PM,27.0,23.0,85,30.30,10.0,West,8.1,-,N/A,,Mostly Cloudy,280,2013-01-25 00:53:00
6:53 PM,26.1,23.0,88,30.33,10.0,Calm,Calm,-,N/A,,Mostly Cloudy,0,2013-01-25 01:53:00
7:53 PM,25.0,21.9,88,30.33,10.0,NE,3.5,-,N/A,,Overcast,40,2013-01-25 02:53:00
8:53 PM,23.0,21.0,92,30.34,10.0,NNW,5.8,-,N/A,,Overcast,330,2013-01-25 03:53:00
9:53 PM,21.0,19.0,92,30.37,10.0,North,5.8,-,N/A,,Mostly Cloudy,350,2013-01-25 04:53:00
10:53 PM,21.9,19.9,92,30.27,10.0,Variable,3.5,-,N/A,,Overcast,0,2013-01-25 05:53:00
11:53 PM,18.0,15.1,88,30.37,10.0,East,6.9,-,N/A,,Clear,80,2013-01-25 06:53:00